Greenwich, NY

1:08 PM EST on January 21, 2017 (GMT -0500)
Westchester County Airport

Weather History for KHPN - April, 2014

Change the Weather History Date:

Friday, April 18, 2014

  Actual Average Record
Temperature  
Mean Temperature 37 °F -  
Max Temperature 45 °F 58 °F 90 °F (1976)
Min Temperature 30 °F 39 °F 30 °F (2014)
Degree Days  
Heating Degree Days 28    
Moisture  
Dew Point 27 °F    
Average Humidity 66    
Maximum Humidity 76    
Minimum Humidity 51    
Precipitation  
Precipitation 0.00 in - - ()
Sea Level Pressure  
Sea Level Pressure 30.45 in    
Wind  
Wind Speed 4 mph (ESE)    
Max Wind Speed 9 mph    
Max Gust Speed -    
Visibility 10 miles    
Events      
Averages and records for this station are not official NWS values.
T = Trace of Precipitation, MM = Missing Value Source: NWS Daily Summary

Daily Weather History Graph

Daily Weather History Graph

Search for Another Location

Airport or City:

Trip Planner

Search our weather history database for the weather conditions in past years. The results will help you decide how hot, cold, wet, or windy it might be!

Date:

Astronomy

Apr. 18, 2014 Rise Set
Actual Time 6:11 AM EDT 7:37 PM EDT
Civil Twilight 5:42 AM EDT 8:06 PM EDT
Nautical Twilight 5:07 AM EDT 8:41 PM EDT
Astronomical Twilight 4:31 AM EDT 9:18 PM EDT
Moon 11:21 PM EDT (4/18) 8:29 AM EDT (4/18)
Length of Visible Light 14h 24m
Length of Day
13h 26m
Waning Gibbous, 87% of the Moon is Illuminated
Apr 18
Waning Gibbous
Apr 22
Last Quarter
Apr 29
New
May 6
First Quarter
May 14
Full

Hourly Weather History & Observations

Time (EDT) Temp. Windchill Dew Point Humidity Pressure Visibility Wind Dir Wind Speed Gust Speed Precip Events Conditions
12:56 AM 36.0 °F 33.3 °F 27.0 °F 70% 30.61 in 10.0 mi East 3.5 mph - N/A   Clear
1:56 AM 35.1 °F - 25.0 °F 67% 30.61 in 10.0 mi Calm Calm - N/A   Clear
2:56 AM 33.1 °F 30.0 °F 25.0 °F 72% 30.60 in 10.0 mi NNE 3.5 mph - N/A   Clear
3:56 AM 32.0 °F 28.7 °F 24.1 °F 73% 30.57 in 10.0 mi NE 3.5 mph - N/A   Clear
4:56 AM 30.9 °F 25.2 °F 23.0 °F 72% 30.51 in 10.0 mi ENE 5.8 mph - N/A   Clear
5:56 AM 30.9 °F 26.2 °F 23.0 °F 72% 30.53 in 10.0 mi ENE 4.6 mph - N/A   Clear
6:56 AM 32.0 °F 27.5 °F 24.1 °F 73% 30.54 in 10.0 mi NE 4.6 mph - N/A   Overcast
7:56 AM 33.1 °F 28.7 °F 25.0 °F 72% 30.56 in 10.0 mi East 4.6 mph - N/A   Overcast
8:56 AM 34.0 °F 28.8 °F 26.1 °F 73% 30.57 in 10.0 mi ESE 5.8 mph - N/A   Overcast
9:56 AM 36.0 °F 33.3 °F 26.1 °F 67% 30.55 in 10.0 mi Variable 3.5 mph - N/A   Mostly Cloudy
10:56 AM 37.9 °F 34.4 °F 26.1 °F 62% 30.51 in 10.0 mi Variable 4.6 mph - N/A   Mostly Cloudy
11:56 AM 39.9 °F - 28.0 °F 63% 30.49 in 10.0 mi Calm Calm - N/A   Mostly Cloudy
12:39 PM 42.8 °F 37.5 °F 30.2 °F 61% 30.46 in 10.0 mi SSE 9.2 mph - N/A   Scattered Clouds
12:56 PM 42.1 °F 37.1 °F 30.0 °F 62% 30.48 in 10.0 mi SSE 8.1 mph - N/A   Partly Cloudy
1:56 PM 42.1 °F 37.1 °F 30.0 °F 62% 30.45 in 10.0 mi SSE 8.1 mph - N/A   Mostly Cloudy
2:56 PM 43.0 °F 39.5 °F 28.0 °F 56% 30.43 in 10.0 mi South 5.8 mph - N/A   Overcast
3:56 PM 43.0 °F 37.7 °F 26.1 °F 51% 30.37 in 10.0 mi East 9.2 mph - N/A   Clear
4:56 PM 44.1 °F 40.8 °F 28.9 °F 55% 30.36 in 10.0 mi SE 5.8 mph - N/A   Clear
5:56 PM 43.0 °F 40.3 °F 28.9 °F 58% 30.35 in 10.0 mi South 4.6 mph - N/A   Scattered Clouds
6:56 PM 42.1 °F - 28.9 °F 60% 30.33 in 10.0 mi Calm Calm - N/A   Clear
7:56 PM 39.2 °F 35.9 °F 30.2 °F 70% 30.28 in 10.0 mi SSE 4.6 mph - N/A   Clear
8:56 PM 39.9 °F - 30.9 °F 70% 30.31 in 10.0 mi Calm Calm - N/A   Clear
9:56 PM 39.9 °F - 30.0 °F 68% 30.30 in 10.0 mi Calm Calm - N/A   Clear
10:56 PM 39.0 °F 36.8 °F 30.9 °F 73% 30.28 in 10.0 mi South 3.5 mph - N/A   Clear
11:56 PM 39.0 °F - 32.0 °F 76% 30.27 in 9.0 mi Calm Calm - N/A   Partly Cloudy